Hourly Data Report for September 03, 2018

TORONTO CITY
ONTARIO
Current Station Operator: ECCC - MSC

43°40'00.000" N
79°24'00.000" W
112.50 m
6158355
71508
XTO

Download Data

Hourly Data (September 2018)
Hourly Data Report for September 3, 2018
TIME
LST
Temp Definition
°C
Dew Point Definition
°C
Rel Hum Definition
%
Precip. Amount Definition
mm

Wind Dir Definition
10's deg

Wind Spd Definition
km/h
Visibility Definition
km
Stn Press Definition
kPa
Hmdx Definition


Wind Chill Definition


Weather Definition


00:00 23.3 20.0 82 0.0 LegendMM LegendMM   100.63 31   LegendNANA
01:00 23.5 20.2 82 0.0 LegendMM LegendMM   100.66 31   LegendNANA
02:00 23.3 20.1 82 0.0 LegendMM LegendMM   100.64 31   LegendNANA
03:00 23.1 20.0 82 0.0 LegendMM LegendMM   100.63 31   LegendNANA
04:00 22.5 19.8 85 0.0 LegendMM LegendMM   100.62 30   LegendNANA
05:00 22.9 19.8 83 0.0 LegendMM LegendMM   100.66 30   LegendNANA
06:00 23.4 20.4 83 0.0 LegendMM LegendMM   100.72 31   LegendNANA
07:00 24.1 20.5 80 0.0 LegendMM LegendMM   100.77 32   LegendNANA
08:00 24.9 20.8 78 0.0 LegendMM LegendMM   100.78 33   LegendNANA
09:00 25.6 20.8 75 0.0 LegendMM LegendMM   100.82 34   LegendNANA
10:00 28.5 20.8 63 0.0 LegendMM LegendMM   100.82 37   LegendNANA
11:00 29.5 20.6 59 0.0 LegendMM LegendMM   100.82 38   LegendNANA
12:00 31.2 19.9 51 0.0 LegendMM LegendMM   100.76 39   LegendNANA
13:00 31.1 18.4 47 0.0 LegendMM LegendMM   100.77 37   LegendNANA
14:00 26.5 20.0 68 0.0 LegendMM LegendMM   100.81 34   LegendNANA
15:00 25.0 19.4 71 0.0 LegendMM LegendMM   100.81 32   LegendNANA
16:00 25.0 20.1 74 0.0 LegendMM LegendMM   100.82 33   LegendNANA
17:00 26.0 21.3 75 0.0 LegendMM LegendMM   100.80 35   LegendNANA
18:00 26.7 21.5 73 0.0 LegendMM LegendMM   100.81 36   LegendNANA
19:00 27.3 19.6 63 0.0 LegendMM LegendMM   100.87 35   LegendNANA
20:00 25.9 19.5 68 0.0 LegendMM LegendMM   100.98 33   LegendNANA
21:00 25.1 19.1 70 0.0 LegendMM LegendMM   101.04 32   LegendNANA
22:00 24.1 19.0 73 0.0 LegendMM LegendMM   101.06 31   LegendNANA
23:00 23.7 18.6 73 0.0 LegendMM LegendMM   101.11 30   LegendNANA

Notes on Data Quality.

Legend

  • E = Estimated
  • M = Missing
  • NA = Not Available*
  • [empty] = Indicates an unobserved value
Date modified: